Location: Calvin Observatory
(42.9309°N, 85.5886°W)
Time: 09:11:17
(UTC-04:00)

ISS - Visible Passes

Search period start: 01 April 2015 00:00
Search period end: 11 April 2015 00:00
Orbit: 396 x 405 km, 51.6° (Epoch: 01 April)

Date Brightness Start Highest point End Pass type
(mag) Time Alt. Az. Time Alt. Az. Time Alt. Az.
01 Apr -1.2 05:27:08 19° SE 05:27:08 19° SE 05:28:12 10° SE visible
02 Apr -1.0 21:09:32 10° SSE 21:09:49 11° SSE 21:09:49 11° SSE visible
03 Apr -2.6 21:50:17 10° SW 21:52:38 39° S 21:52:38 39° S visible
04 Apr -2.3 20:57:12 10° SSW 20:59:58 27° SE 21:02:25 12° E visible
04 Apr -1.4 22:33:08 10° W 22:35:04 29° WNW 22:35:04 29° WNW visible
05 Apr -3.2 21:39:20 10° WSW 21:42:36 73° NNW 21:44:30 23° NE visible
05 Apr 0.1 23:16:49 10° WNW 23:17:07 12° WNW 23:17:07 12° WNW visible
06 Apr -3.3 20:45:45 10° SW 20:48:58 59° SE 20:52:11 10° ENE visible
06 Apr -1.4 22:22:41 10° W 22:25:33 27° NNW 22:26:14 25° N visible
07 Apr -2.0 21:28:37 10° W 21:31:43 39° NNW 21:34:48 10° NE visible
07 Apr -0.3 23:06:23 10° NW 23:07:42 16° NNW 23:07:42 16° NNW visible
08 Apr -0.9 22:12:14 10° WNW 22:14:46 20° NNW 22:16:22 15° NNE visible
09 Apr -1.2 21:18:00 10° WNW 21:20:48 25° NNW 21:23:36 10° NE visible
09 Apr -0.6 22:55:40 10° NW 22:57:28 17° N 22:57:28 17° N visible
10 Apr -0.8 22:01:36 10° NW 22:03:55 18° N 22:05:53 12° NE visible
10 Apr 0.3 23:38:22 10° NW 23:38:26 10° NW 23:38:26 10° NW visible
